Find Rasat

NORAD ID: 37791 Int'l Des: 2011-044 Owner: TUBTU Country: TR operational
LEOCIRCULARRETROGRADESSO

实时位置

正在加载3D地球...

关于 Rasat

正在加载描述...

即将过境

Passes for default location (London). Set your location on the main map for personalized predictions.

高度历史

Loading altitude history...

两行轨道根数

1 37791U 11044D 26137.85718706 .00000547 00000-0 10345-3 0 9990
2 37791 98.0565 229.7187 0019249 290.2769 174.3743 14.68135286788734
Epoch: May 17, 2026 • Age: 7 hours

当前状态

高度 693.6 km
速度 7.51 km/s
星下点 79.74°N, 179.03°E
发射日期 Aug 17, 2011
运行时间 14.7 years
类型 other

技术详情

分类 Payload
质量 95.00 kg
干质量 95.00 kg
总质量 95.00 kg
长度 0.60 m
直径 0.60 m
跨度 6.60 m
形状 Box + Ant
制造商 TUBTU
平台类型 MS-100
阶段状态 In Orbit
所有者/国家 TUBTU/TR

Most Searched